Regional Weather Roundup
Issued by NWS

Home | Current Version | Previous Version | Text Only | Print | Product List | Glossary Off
Versions: 1 2 3 4 5 6 7 8 9 10 11 12 13 14 15 16 17 18 19 20 21 22 23 24 25 26 27 28 29 30 31 32 33 34 35 36 37 38 39 40 41 42 43 44 45 46 47 48 49 50

000
ASUS43 KBIS 252302
RWRND

NORTH DAKOTA REGIONAL WEATHER ROUNDUP
NATIONAL WEATHER SERVICE BISMARCK ND
600 PM CDT SAT MAR 25 2017

NOTE: "FAIR" INDICATES FEW OR NO CLOUDS BELOW 12,000 FEET WITH NO
SIGNIFICANT WEATHER AND/OR OBSTRUCTIONS TO VISIBILITY.


NDZ001>003-009>011-017-260000-
NORTHWEST NORTH DAKOTA

CITY           SKY/WX    TMP DP  RH WIND       PRES   REMARKS
WILLISTON      FAIR      60  28  29 W9        29.86S
MINOT          FAIR      51  37  58 S9        29.87S
MINOT AFB      CLOUDY    50  39  67 S10       29.86S
$$

NDZ018>021-031>035-040>046-260000-
SOUTHWEST NORTH DAKOTA

CITY           SKY/WX    TMP DP  RH WIND       PRES   REMARKS
BISMARCK       FAIR      55  30  38 S7        29.92F
DICKINSON      PTSUNNY   57  23  26 N13       29.85S
GARRISON         N/A     49  37  63 S7        29.87F
HETTINGER ARPT MOSUNNY   59  34  39 CALM      29.87S
$$

NDZ004>008-012>016-024-026-027-054-260000-
NORTHEAST NORTH DAKOTA

CITY           SKY/WX    TMP DP  RH WIND       PRES   REMARKS
GRAND FORKS    PTSUNNY   38  34  85 S14       30.04F
GRND FRKS AFB  CLOUDY    36  33  88 S12       30.04S
DEVILS LAKE    FAIR      39  33  79 S16       29.96S
$$

NDZ022-023-025-028>030-036>039-047>053-260000-
SOUTHEAST NORTH DAKOTA

CITY           SKY/WX    TMP DP  RH WIND       PRES   REMARKS
FARGO          CLOUDY    41  35  79 S13       30.04F
JAMESTOWN      FAIR      44  34  67 SE14      29.97F
$$





USA.gov is the U.S. government's official web portal to all federal, state and local government web resources and services.